Wind_Speed
41 43 36 30 28 44 44 41 39 31 28 28 22 18 24 26 23 22 22 21 19 12 12 11 15 19 25 35 34 10 29 35 19 26 35 31 29 29 36 36 29 28 27 25
28 44 33 32 33 40 39 39 35 32 28 22 20 20 22 24 23 22 21 17 13 12 11 10 21 26 30 34 29 17 42 20 17 20 29 35 35 33 32 30 31 29 29 26
39 34 33 31 35 47 39 38 35 29 23 20 20 20 19 20 17 20 16 12 11 9 5 18 24 30 29 23 25 34 34 11 22 27 21 33 30 30 20 30 27 26 27 29
46 39 33 35 37 46 39 38 32 25 21 21 19 18 15 15 14 16 11 9 7 5 12 21 27 31 29 29 36 25 13 22 12 21 18 31 35 27 24 23 20 22 25 29
44 40 34 34 36 46 38 34 30 24 21 20 17 18 13 8 11 9 8 4 6 4 15 20 24 29 31 33 28 29 29 23 19 20 21 25 17 20 27 28 26 25 25 25
46 41 42 46 47 45 38 33 28 27 22 19 15 17 10 7 11 6 7 7 9 8 21 26 27 28 34 32 28 27 24 26 30 25 20 21 21 17 22 25 20 25 23 17
43 39 44 41 34 45 36 31 29 27 20 18 14 16 9 10 10 3 4 9 11 22 23 25 29 29 29 25 24 25 21 23 21 23 24 24 19 23 22 24 25 19 21 21
39 42 37 43 38 42 35 32 31 25 20 17 14 14 9 9 6 5 5 3 15 23 23 25 31 31 35 36 30 30 28 26 26 23 21 24 21 19 21 24 27 31 27 27
45 40 41 36 42 37 35 33 29 24 21 18 15 15 10 6 5 5 2 10 18 21 20 24 30 35 36 35 32 28 29 31 28 28 26 17 20 19 20 21 20 24 29 31
49 41 36 44 47 41 33 31 28 25 21 18 17 17 14 9 10 8 9 8 20 20 21 18 20 25 30 31 28 28 26 26 28 27 26 23 17 19 20 17 16 21 23 24
45 36 38 32 37 39 34 30 28 24 22 18 18 19 16 13 12 11 13 13 14 24 22 24 25 24 22 21 22 24 21 19 16 18 14 14 19 16 15 13 17 20 21 20
47 38 39 34 34 38 34 33 29 24 22 20 18 21 19 13 15 12 18 15 19 18 19 18 19 19 18 17 19 20 19 14 17 15 14 16 16 16 14 17 17 17 16 17
48 42 33 36 37 38 38 32 30 25 23 22 19 22 23 20 15 14 22 23 18 19 18 19 15 15 17 17 17 19 18 18 14 19 18 15 16 14 16 12 14 17 14 13
50 40 33 33 40 39 38 34 31 26 23 22 19 22 22 18 13 11 19 28 23 22 18 16 17 14 21 21 19 21 15 19 17 17 16 21 22 17 14 12 10 13 15 15
48 38 38 32 41 39 36 35 31 27 24 20 20 23 23 19 17 13 22 21 29 23 22 21 21 17 21 18 20 21 15 16 20 20 21 15 13 12 12 11 11 12 12 13
42 36 33 43 37 36 35 35 32 29 23 22 18 21 22 23 16 18 28 27 22 27 26 25 24 22 21 19 19 23 17 17 15 16 15 12 11 11 11 12 11 13 15 19
40 37 37 42 43 43 38 35 31 30 24 22 20 20 21 22 21 17 18 21 29 31 29 31 27 24 23 22 22 21 20 19 17 13 14 15 14 12 13 14 16 19 22 25
45 39 39 40 42 43 39 34 32 26 24 22 21 17 18 22 21 19 15 16 19 31 32 26 23 23 19 17 17 16 14 16 17 17 15 15 15 17 18 20 21 24 27 30
44 36 39 43 45 44 38 36 35 34 27 30 24 20 18 20 23 23 20 18 18 23 24 28 27 25 22 21 20 21 19 18 19 20 19 18 19 21 23 24 26 29 32 32
39 41 37 43 44 44 41 39 39 39 36 33 30 27 22 18 19 23 26 24 21 21 24 28 32 29 26 28 25 22 22 24 28 27 25 25 24 27 28 30 32 34 35 33
48 46 38 35 43 46 46 43 42 43 41 35 32 27 22 22 23 23 24 26 27 25 22 23 23 20 30 31 32 34 28 31 28 28 31 31 33 32 32 34 36 35 34 35
44 42 36 34 40 49 49 48 46 47 42 39 34 28 25 26 25 23 21 21 23 26 24 24 23 17 23 27 31 34 37 39 37 37 34 33 34 35 36 36 35 35 36 35
44 43 39 35 34 36 37 35 37 38 39 37 33 30 30 29 28 25 25 25 23 21 22 21 18 23 25 27 28 30 30 32 34 34 35 35 36 35 33 34 35 35 35 34
52 47 42 39 37 37 33 29 27 28 34 39 37 36 34 30 30 30 29 29 28 27 23 18 18 21 23 24 26 26 26 27 28 29 28 29 30 33 33 34 34 34 34 33
53 52 47 37 37 36 34 34 33 32 36 39 41 39 38 35 38 36 35 33 32 28 22 22 23 25 26 25 26 26 26 26 26 27 30 31 32 32 32 32 32 32 31 32
55 54 48 38 34 33 29 25 25 28 30 35 38 39 40 39 39 36 34 33 30 27 27 27 27 26 26 27 27 27 28 29 29 30 30 29 29 29 30 30 30 31 33 35
55 52 49 42 36 32 28 26 22 24 25 24 27 31 33 32 34 35 33 29 29 31 31 32 31 30 29 28 27 26 26 27 27 26 26 27 27 28 30 31 32 33 33 33
Wind_Direction
204 216 214 224 221 221 206 213 217 215 225 241 260 276 279 286 286 302 292 293 293 298 287 279 195 186 194 194 195 171 189 168 188 186 206 187 170 179 189 190 191 194 209 218
182 199 206 212 222 228 200 210 211 212 221 242 255 264 280 276 289 295 300 290 277 294 292 197 179 182 193 192 196 176 184 179 179 179 198 195 203 196 189 200 198 202 213 223
202 202 202 202 201 207 200 205 209 208 219 237 249 262 271 276 296 302 287 286 285 287 207 182 175 183 183 180 190 176 180 143 159 198 203 208 205 189 209 200 195 209 221 229
203 200 196 203 212 201 199 203 204 207 216 233 248 266 260 279 305 302 272 270 289 292 183 186 181 182 179 177 191 174 177 195 126 165 180 193 206 208 206 201 193 203 217 227
190 185 182 186 210 200 196 199 200 206 214 229 245 262 259 295 309 296 267 273 231 262 180 180 193 178 169 177 189 187 189 195 169 170 181 184 177 189 202 198 218 218 227 228
186 185 195 206 207 195 191 193 200 208 214 225 237 252 236 300 316 246 311 285 222 182 171 174 186 187 186 185 194 201 193 201 202 208 198 208 220 214 213 217 230 226 231 241
185 184 190 208 215 194 185 193 201 207 207 220 232 232 226 264 282 234 281 314 197 164 171 172 177 184 185 194 201 200 198 216 211 218 224 228 226 223 226 226 218 214 225 240
193 190 196 198 208 193 186 193 202 203 205 213 227 218 220 269 217 186 289 227 169 161 165 169 174 182 190 192 198 207 209 215 213 219 229 232 228 230 224 228 225 230 237 242
197 188 193 211 196 186 190 195 202 203 202 208 218 203 211 231 184 196 245 163 162 151 157 170 178 186 190 196 204 211 216 225 228 234 238 239 232 226 236 231 233 237 240 243
193 193 205 208 192 182 194 198 200 204 203 205 212 203 204 217 215 203 217 198 183 155 171 195 195 195 196 198 201 208 215 221 232 231 234 233 226 231 236 234 231 237 240 245
195 199 203 206 194 189 188 197 204 204 201 204 210 204 201 212 228 225 204 200 179 182 195 189 173 174 177 190 199 206 215 230 230 222 213 204 212 217 222 222 216 226 234 237
193 197 199 201 212 199 197 194 205 203 202 207 208 204 204 218 221 238 220 201 194 187 187 186 183 184 188 194 199 207 209 220 235 230 210 199 209 217 217 218 218 219 230 240
188 192 204 198 201 204 211 198 205 203 202 209 209 210 213 220 230 247 225 209 202 195 195 203 208 211 209 213 216 216 225 236 228 211 211 215 214 231 235 226 237 239 231 255
186 194 206 204 200 204 192 201 203 203 201 207 214 209 214 215 212 228 220 206 204 213 211 209 210 209 223 228 227 228 245 233 211 211 229 224 230 237 225 233 228 231 250 257
194 198 203 206 191 185 197 200 200 201 201 204 213 208 214 214 224 210 183 179 202 206 210 222 220 226 220 235 233 222 226 223 224 231 219 208 207 201 212 222 235 246 264 284
193 195 195 190 185 189 195 201 200 203 201 203 210 207 216 220 219 212 184 190 200 209 218 214 216 229 228 231 229 215 227 218 205 184 186 194 205 216 228 245 261 275 286 290
195 195 198 200 194 192 192 200 199 202 206 206 207 208 215 225 224 224 225 225 205 201 206 207 210 219 214 213 202 200 186 185 186 189 206 216 224 236 251 259 268 278 284 289
189 198 206 204 201 197 192 198 202 198 213 208 210 205 217 224 228 230 235 235 236 224 207 198 200 200 197 191 196 189 191 206 209 216 226 235 243 252 259 267 275 282 290 295
195 201 202 202 205 198 196 202 201 202 205 215 208 205 214 217 225 229 234 234 236 232 230 228 218 205 192 190 204 207 215 225 230 237 247 255 260 267 274 277 281 286 292 292
189 200 205 204 204 202 200 205 205 203 210 214 211 213 217 219 234 230 231 234 237 237 236 241 239 224 210 205 214 221 231 239 240 243 259 266 274 279 278 279 282 286 290 288
192 202 210 209 206 202 201 205 208 210 213 215 217 217 219 225 230 231 234 233 236 240 235 241 244 242 230 231 229 226 238 240 248 257 260 267 270 274 278 280 283 285 284 283
196 206 212 210 215 214 212 210 210 213 216 217 218 224 226 231 233 234 233 237 239 245 245 244 248 242 238 245 241 244 247 246 253 263 267 269 272 274 276 280 280 279 279 279
203 211 209 205 207 213 217 220 222 226 224 221 223 225 227 228 235 237 239 240 239 240 239 238 241 238 238 239 242 247 249 251 254 259 264 266 269 273 272 271 273 276 278 278
204 211 216 216 222 220 218 223 227 229 229 231 229 227 232 228 233 235 239 240 242 241 244 244 243 241 240 242 244 247 250 254 256 258 260 262 265 266 269 272 274 275 275 277
208 216 217 213 217 221 226 230 234 234 234 230 230 230 231 230 230 234 236 240 242 245 250 251 250 250 251 251 252 252 252 254 254 254 258 261 264 266 267 270 272 273 275 277
207 217 219 219 224 224 222 230 234 235 236 232 232 233 235 236 237 240 244 249 253 255 256 253 252 252 252 254 255 256 255 254 255 257 260 261 263 266 270 273 274 276 278 278
207 211 217 221 224 220 219 220 222 225 225 225 231 237 238 243 243 243 248 256 253 249 251 254 259 261 260 258 258 257 256 257 259 260 262 266 270 273 274 274 276 276 276 277
Height
5479 5491 5501 5510 5518 5526 5535 5546 5554 5563 5566 5570 5574 5576 5574 5575 5574 5570 5565 5561 5559 5556 5554 5554 5555 5558 5561 5566 5573 5581 5585 5591 5595 5602 5605 5613 5622 5632 5639 5648 5658 5663 5668 5676
5472 5486 5495 5505 5514 5521 5530 5540 5548 5555 5560 5564 5568 5569 5570 5569 5568 5564 5560 5557 5555 5554 5552 5553 5555 5558 5561 5568 5577 5584 5588 5596 5599 5604 5610 5615 5621 5632 5641 5648 5655 5662 5667 5673
5468 5479 5490 5501 5510 5515 5525 5534 5542 5549 5554 5560 5561 5563 5565 5564 5562 5559 5555 5554 5553 5553 5552 5553 5557 5561 5564 5573 5580 5584 5592 5595 5603 5606 5608 5617 5627 5633 5639 5647 5656 5662 5666 5671
5465 5476 5486 5497 5504 5511 5520 5528 5538 5545 5551 5554 5556 5557 5560 5559 5557 5554 5551 5552 5553 5553 5553 5554 5558 5563 5569 5577 5580 5584 5589 5595 5599 5604 5609 5618 5626 5632 5640 5648 5655 5660 5663 5667
5462 5473 5484 5494 5500 5507 5514 5525 5534 5540 5545 5548 5551 5553 5556 5554 5552 5551 5551 5551 5551 5552 5553 5556 5561 5565 5571 5578 5582 5585 5592 5597 5602 5607 5613 5621 5627 5632 5639 5646 5650 5656 5660 5665
5457 5468 5481 5487 5492 5501 5513 5522 5530 5536 5540 5544 5547 5549 5552 5552 5550 5550 5549 5548 5548 5550 5554 5557 5558 5567 5573 5579 5585 5590 5595 5599 5605 5609 5616 5622 5629 5635 5640 5644 5647 5654 5659 5662
5454 5465 5476 5484 5492 5500 5509 5518 5525 5531 5537 5540 5543 5546 5548 5549 5548 5549 5549 5547 5546 5548 5553 5557 5561 5566 5573 5580 5585 5589 5595 5599 5606 5611 5617 5621 5627 5631 5636 5641 5644 5648 5653 5656
5453 5463 5472 5479 5485 5498 5506 5514 5521 5527 5532 5536 5540 5543 5545 5547 5546 5548 5548 5548 5549 5549 5553 5558 5563 5569 5573 5577 5583 5589 5595 5600 5606 5610 5614 5619 5624 5629 5633 5636 5642 5644 5648 5650
5452 5462 5471 5479 5486 5494 5504 5511 5517 5524 5529 5533 5536 5540 5543 5545 5546 5547 5550 5549 5552 5553 5555 5559 5564 5569 5577 5583 5588 5592 5596 5600 5606 5610 5613 5617 5621 5624 5628 5632 5637 5640 5642 5644
5450 5460 5468 5473 5482 5489 5501 5509 5514 5520 5525 5530 5534 5537 5541 5544 5546 5547 5550 5552 5553 5555 5558 5560 5565 5571 5577 5582 5588 5592 5596 5598 5602 5606 5610 5615 5619 5621 5623 5629 5635 5633 5636 5639
5449 5457 5465 5475 5483 5491 5497 5506 5512 5517 5523 5527 5530 5534 5539 5542 5545 5547 5549 5553 5555 5559 5561 5563 5566 5571 5577 5582 5587 5589 5594 5597 5601 5605 5609 5613 5614 5617 5621 5625 5626 5629 5631 5634
5447 5455 5463 5472 5480 5489 5496 5502 5509 5515 5520 5525 5528 5531 5536 5540 5544 5547 5548 5552 5554 5558 5561 5565 5568 5573 5577 5582 5585 5588 5592 5596 5599 5604 5607 5609 5612 5615 5618 5620 5623 5626 5629 5631
5444 5453 5461 5468 5477 5485 5494 5500 5506 5512 5517 5522 5525 5529 5533 5537 5541 5544 5545 5550 5554 5557 5561 5565 5569 5573 5577 5580 5584 5587 5591 5594 5597 5600 5605 5607 5610 5612 5615 5617 5620 5623 5626 5628
5442 5451 5458 5465 5474 5481 5490 5498 5504 5510 5515 5519 5523 5526 5530 5535 5538 5540 5541 5545 5551 5556 5560 5563 5567 5571 5575 5578 5582 5585 5588 5589 5594 5598 5601 5604 5607 5609 5612 5614 5617 5620 5622 5624
5440 5449 5456 5462 5470 5479 5488 5495 5501 5507 5513 5517 5520 5523 5528 5532 5535 5540 5541 5545 5549 5553 5558 5562 5566 5569 5573 5576 5579 5583 5585 5587 5591 5595 5597 5601 5604 5606 5609 5611 5614 5616 5618 5618
5439 5446 5453 5461 5469 5477 5485 5492 5498 5504 5509 5515 5518 5522 5525 5530 5534 5538 5540 5541 5547 5551 5555 5558 5561 5565 5570 5573 5576 5579 5583 5586 5589 5592 5595 5598 5601 5604 5607 5609 5610 5611 5612 5613
5436 5445 5452 5460 5467 5474 5482 5491 5499 5503 5507 5512 5516 5519 5523 5526 5531 5536 5539 5542 5544 5548 5551 5555 5559 5564 5566 5569 5573 5576 5580 5583 5586 5590 5594 5597 5600 5602 5603 5605 5606 5606 5607 5607
5436 5443 5450 5457 5463 5471 5479 5487 5494 5500 5505 5509 5513 5517 5521 5524 5528 5532 5536 5539 5542 5545 5547 5550 5555 5559 5564 5567 5570 5574 5578 5582 5585 5588 5591 5593 5596 5597 5598 5600 5600 5600 5600 5599
5434 5440 5445 5451 5458 5468 5477 5484 5490 5497 5503 5505 5510 5514 5518 5521 5525 5528 5532 5535 5538 5542 5546 5549 5552 5556 5563 5566 5568 5571 5575 5579 5581 5584 5587 5589 5590 5592 5593 5593 5594 5593 5592 5592
5431 5435 5441 5449 5457 5465 5473 5480 5486 5491 5495 5501 5505 5510 5515 5519 5522 5525 5529 5532 5535 5539 5544 5547 5550 5556 5559 5562 5565 5568 5571 5574 5575 5578 5581 5583 5585 5585 5586 5586 5586 5585 5585 5584
5426 5432 5440 5448 5454 5461 5467 5474 5480 5485 5492 5499 5503 5506 5512 5516 5518 5521 5524 5528 5531 5534 5540 5542 5545 5552 5556 5558 5560 5561 5564 5567 5569 5572 5574 5576 5576 5577 5578 5578 5577 5576 5576 5575
5426 5432 5438 5445 5449 5456 5462 5468 5475 5481 5488 5494 5500 5505 5509 5511 5514 5517 5521 5523 5526 5529 5535 5537 5540 5547 5547 5548 5551 5556 5558 5560 5562 5564 5566 5567 5568 5568 5569 5568 5568 5567 5567 5566
5423 5428 5432 5437 5444 5450 5458 5465 5471 5478 5485 5492 5497 5501 5503 5506 5510 5514 5517 5519 5522 5525 5528 5532 5537 5537 5538 5541 5544 5546 5549 5551 5554 5555 5557 5557 5558 5559 5559 5559 5558 5558 5558 5557
5417 5421 5428 5434 5441 5449 5456 5463 5470 5477 5483 5485 5489 5493 5496 5501 5505 5507 5510 5514 5516 5518 5523 5528 5529 5529 5531 5533 5535 5538 5540 5542 5544 5546 5548 5549 5549 5550 5550 5549 5549 5549 5549 5547
5413 5419 5424 5433 5440 5446 5451 5457 5463 5469 5473 5476 5480 5485 5489 5494 5496 5500 5503 5507 5508 5514 5519 5520 5522 5523 5524 5526 5528 5531 5533 5534 5536 5538 5539 5539 5540 5540 5540 5540 5540 5540 5539 5538
5408 5413 5422 5430 5435 5441 5447 5452 5455 5459 5462 5467 5472 5477 5481 5485 5489 5494 5497 5501 5506 5510 5511 5512 5513 5515 5517 5519 5521 5523 5524 5526 5527 5528 5529 5530 5530 5531 5531 5531 5531 5531 5530 5529
5400 5408 5417 5424 5430 5435 5440 5444 5448 5450 5456 5461 5466 5471 5475 5478 5481 5486 5491 5496 5499 5500 5502 5504 5506 5508 5510 5512 5513 5515 5516 5518 5519 5520 5521 5521 5522 5522 5522 5522 5522 5521 5520 5519